Location: Barrio Las Umbrías
(40.4173°N, 4.8685°W)
Time: 12:16:27
(UTC+00:00)

Cosmos 1459 Rocket - Pass Details

Date: 17 August 2022
Orbit: 938 x 998 km, 83.0° (Epoch: 27 September)

Event Time Altitude Azimuth Distance (km) Brightness Sun altitude
Rises 21:07:00 0° 348° (NNW) 3,685 7.8 -19.7°
Reaches altitude 10° 21:09:32 10° 345° (NNW) 2,742 7.1 -20.1°
Maximum altitude 21:15:43 60° 268° (W) 1,121 4.5 -21.0°
Enters shadow 21:21:02 15° 191° (SSW) 2,434 5.8 -21.7°
